[[{"header":{"parameterUnit":"m.s-1","parameterCategory":1,"la1":30.2991,"la2":30.254,"lo1":-89.0895,"lo2":-89.0444,"dy":0.0017,"dx":0.0017,"nx":28,"ny":28,"refTime":"2025-01-07T03:00:00:Z","depth":0,"parameterNumber":2,"parameterNumberName":"U-component_of_WINDS"},"data":[0,0,0,0,0,0,0,0,0,0,0,0,0,0,0,0,0,0,0,0,0,0,0,0,0,0,0,0,0,0,0,0,0,0,0,0,0,0,0,0,0,0,0,0,0,0,0,0,0,0,0,0,0,0,0,0,0,0,0.2175,0.2175,0,0.2164,0.2164,0.2164,0.2189,0.219,0.219,0.2191,0.2176,0.2175,0.2174,0,0,0,0,0,0,0,0,0,0,0,0,0,0.2216,0.2215,0.2175,0.2175,0.2175,0.2164,0.2164,0.2164,0.2189,0.219,0.2191,0.2192,0.2177,0.2175,0.2174,0,0,0,0,0,0,0,0,0,0,0,0,0,0.22,0.2214,0.2175,0.2186,0.2187,0.2164,0.2164,0.2164,0.2188,0.219,0.2191,0.2192,0.2177,0.2175,0.2174,0.2139,0,0,0.2168,0.2168,0,0,0,0,0,0,0,0,0.2201,0.2199,0.2185,0.2185,0.2186,0.2179,0.2173,0.2155,0.2188,0.2188,0.2191,0.2193,0.2176,0.2174,0.217,0.2138,0.2137,0.2168,0.2167,0.2166,0.2166,0,0,0,0,0,0,0,0.2202,0.22,0.2171,0.2184,0.2185,0.2191,0.219,0.217,0.2175,0.2188,0.219,0.2188,0.2177,0.2171,0.2169,0.2137,0.2168,0.2167,0.2166,0.2165,0.2077,0.2075,0,0,0,0,0,0,0.2202,0.22,0.2171,0.217,0.2197,0.2189,0.2188,0.218,0.2175,0.2176,0.2187,0.2189,0.2173,0.2171,0.2169,0.2127,0.2166,0.2165,0.2164,0.2078,0.2076,0.2075,0,0,0,0,0,0,0.2203,0.22,0.2172,0.2186,0.2183,0.2187,0.2178,0.2179,0.2174,0.2175,0.2176,0.2181,0.2174,0.2171,0.2146,0.2127,0.2164,0.2162,0.208,0.2077,0.2076,0.2044,0,0,0,0,0,0,0.2204,0.22,0.2187,0.2185,0.2182,0.215,0.2177,0.2178,0.2171,0.2174,0.2169,0.2169,0.2175,0.2149,0.2145,0.2126,0.2161,0.2081,0.2079,0.2076,0.2047,0.2041,0.2037,0,0,0,0,0,0.2206,0.2177,0.2186,0.2182,0.2166,0.2148,0.2146,0.2154,0.217,0.2156,0.2157,0.2169,0.2131,0.2146,0.2141,0.2122,0.2082,0.2079,0.2076,0.2049,0.2043,0.2037,0,0,0,0,0,0,0.2175,0.2177,0.2187,0.2158,0.2153,0.2153,0.2136,0.2147,0.2137,0.214,0.215,0.2148,0.2121,0.2119,0.2136,0.2088,0.2109,0.2105,0.209,0.2083,0.2078,0.2079,0.216,0,0,0,0,0,0.2165,0.2151,0.2154,0.2128,0.2125,0.2131,0.2124,0.2131,0.2126,0.2123,0.2122,0.2116,0.2103,0.2093,0.2081,0.2048,0.2047,0.2032,0.2027,0.2023,0.2018,0.2001,0.1994,0.2065,0.2065,0.2065,0,0,0.2143,0.2143,0.2134,0.2122,0.2119,0.2104,0.2129,0.2112,0.2101,0.212,0.2097,0.2096,0.209,0.2061,0.2048,0.2058,0.1999,0.2019,0.2016,0.2014,0.1997,0.199,0.1984,0.2063,0.2064,0.2064,0,0,0.2096,0.2096,0.2074,0.2071,0.2067,0.2072,0.2066,0.2065,0.2066,0.2043,0.2058,0.2044,0.2021,0.2016,0.201,0.1964,0.1974,0.1959,0.1932,0.1915,0.1909,0.1904,0.1887,0.1881,0.1956,0.1956,0.1956,0,0.207,0.2049,0.2061,0.2043,0.2037,0.2057,0.2034,0.2031,0.2022,0.2017,0.203,0.2002,0.1999,0.1969,0.1958,0.1953,0.1947,0.1959,0.1909,0.1904,0.19,0.1883,0.1877,0.1954,0.1954,0.1954,0.1954,0,0.2016,0.2001,0.1984,0.1977,0.197,0.195,0.1958,0.1949,0.1957,0.196,0.1937,0.1935,0.1922,0.1916,0.1924,0.1887,0.1894,0.1908,0.1929,0.1891,0.1876,0.187,0.1951,0.1952,0.1952,0.1953,0,0,0.1947,0.1949,0.1942,0.1939,0.1937,0.1926,0.1907,0.1896,0.1888,0.1882,0.1866,0.1847,0.186,0.1854,0.1861,0.1846,0.1809,0.1862,0.1862,0.1851,0.1769,0.1757,0.175,0.1817,0.1816,0.1815,0.1769,0,0.19,0.1868,0.1879,0.1847,0.1833,0.1853,0.1836,0.1833,0.1836,0.1824,0.1827,0.1813,0.1832,0.1829,0.1815,0.1817,0.1793,0.182,0.1801,0.18,0.18,0.1742,0.173,0.1686,0.1763,0.1762,0.1762,0,0.184,0.1833,0.18,0.1801,0.1796,0.1781,0.1773,0.1762,0.1759,0.1762,0.1756,0.1767,0.1748,0.1771,0.1745,0.1764,0.1757,0.1757,0.1755,0.1752,0.1777,0.1736,0.1672,0.1665,0.1752,0.1753,0.1754,0,0.1791,0.1774,0.1752,0.175,0.1751,0.174,0.174,0.1739,0.1732,0.1725,0.172,0.1711,0.1705,0.1697,0.1705,0.1721,0.1677,0.1701,0.1678,0.1678,0.1666,0.1667,0.1599,0.1665,0.1665,0.1665,0.1665,0,0.1737,0.1715,0.1731,0.1717,0.1693,0.1707,0.1683,0.1685,0.1684,0.167,0.1687,0.1674,0.1686,0.1674,0.168,0.1657,0.1655,0.1656,0.1657,0.1653,0.1653,0.1648,0.165,0.1663,0.1664,0.1664,0.1664,0,0.1677,0.1687,0.1664,0.1669,0.1669,0.1651,0.1655,0.1642,0.1647,0.163,0.1627,0.1634,0.1621,0.1629,0.1615,0.1619,0.1589,0.1596,0.159,0.1591,0.1568,0.157,0.1493,0.1484,0.1557,0.1556,0.1556,0,0.1641,0.1625,0.1628,0.1621,0.162,0.1608,0.1602,0.1616,0.1608,0.1605,0.1592,0.1581,0.1572,0.155,0.1554,0.1543,0.1549,0.1523,0.1547,0.1544,0.1547,0.1547,0.1545,0.1517,0.1516,0.1516,0.1515,0,0.1575,0.1581,0.1572,0.1565,0.1558,0.1553,0.1549,0.1542,0.1555,0.1546,0.1534,0.1527,0.1514,0.1502,0.1494,0.1493,0.1506,0.1508,0.1502,0.1497,0.1494,0.1494,0.1575,0.1509,0.151,0.151,0.151,0.1511,0.1525,0.1512,0.1512,0.1502,0.1501,0.1498,0.1486,0.1491,0.1481,0.1472,0.1481,0.1466,0.1464,0.1455,0.1452,0.144,0.1451,0.1442,0.144,0.1437,0.1433,0.1498,0.1439,0.1439,0.1439,0.144,0.144,0,0.1458,0.146,0.1451,0.1446,0.1438,0.1454,0.145,0.1442,0.1429,0.1427,0.1419,0.1405,0.1394,0.1398,0.1389,0.1378,0.1384,0.1375,0.1375,0.1375,0.1425,0.1431,0.1371,0.1371,0.1371,0.1371,0.1371,0.1371,0.1423,0.1401,0.1408,0.1387,0.1389,0.1375,0.1372,0.1369,0.1368,0.1352,0.1343,0.1347,0.1347,0.1338,0.1329,0.133,0.1325,0.1314,0.1317,0.1364,0.1371,0.1377,0.1383,0.1313,0.1313,0.1268,0.1267,0.1267]},{"header":{"parameterUnit":"m.s-1","parameterCategory":1,"la1":30.2991,"la2":30.254,"lo1":-89.0895,"lo2":-89.0444,"dy":0.0017,"dx":0.0017,"nx":28,"ny":28,"refTime":"2025-01-07T03:00:00:Z","depth":0,"parameterNumber":3,"parameterNumberName":"V-component_of_WINDS"},"data":[0,0,0,0,0,0,0,0,0,0,0,0,0,0,0,0,0,0,0,0,0,0,0,0,0,0,0,0,0,0,0,0,0,0,0,0,0,0,0,0,0,0,0,0,0,0,0,0,0,0,0,0,0,0,0,0,0,0,-6.2931,-6.2933,0,-6.3083,-6.3085,-6.3086,-6.3004,-6.3,-6.2995,-6.2991,-6.3142,-6.3149,-6.3157,0,0,0,0,0,0,0,0,0,0,0,0,0,-6.2564,-6.2572,-6.2931,-6.2933,-6.2935,-6.3083,-6.3085,-6.3087,-6.3004,-6.2999,-6.2994,-6.299,-6.3139,-6.3148,-6.3158,0,0,0,0,0,0,0,0,0,0,0,0,0,-6.2721,-6.2574,-6.2931,-6.2912,-6.2911,-6.3082,-6.3085,-6.3087,-6.3005,-6.2999,-6.2993,-6.2987,-6.3136,-6.3148,-6.3159,-6.3356,0,0,-6.3195,-6.32,0,0,0,0,0,0,0,0,-6.2712,-6.2734,-6.2913,-6.2913,-6.2913,-6.3018,-6.301,-6.3177,-6.3007,-6.297,-6.2991,-6.2984,-6.3105,-6.3119,-6.3161,-6.3363,-6.3369,-6.3196,-6.3203,-6.3208,-6.3212,0,0,0,0,0,0,0,-6.2701,-6.2727,-6.2991,-6.2915,-6.2916,-6.2894,-6.2909,-6.3042,-6.307,-6.2972,-6.2967,-6.2986,-6.3104,-6.315,-6.3164,-6.3371,-6.3196,-6.3206,-6.3214,-6.3218,-6.3741,-6.3747,0,0,0,0,0,0,-6.2692,-6.2719,-6.2986,-6.2995,-6.2795,-6.2905,-6.2923,-6.2991,-6.3069,-6.3075,-6.2991,-6.2982,-6.3133,-6.315,-6.3169,-6.3404,-6.3208,-6.3219,-6.3226,-6.3734,-6.3742,-6.375,0,0,0,0,0,0,-6.2685,-6.2717,-6.298,-6.2856,-6.2887,-6.2918,-6.2995,-6.2997,-6.3043,-6.3083,-6.3087,-6.3033,-6.3129,-6.3152,-6.331,-6.3408,-6.3225,-6.3235,-6.3726,-6.3737,-6.3746,-6.3876,0,0,0,0,0,0,-6.2675,-6.2715,-6.2791,-6.2858,-6.2894,-6.3121,-6.3001,-6.3004,-6.3064,-6.3053,-6.3123,-6.3129,-6.3126,-6.3293,-6.3322,-6.3421,-6.3245,-6.3717,-6.3731,-6.3743,-6.3863,-6.3889,-6.3912,0,0,0,0,0,-6.2662,-6.2821,-6.2795,-6.2828,-6.2991,-6.3126,-6.3147,-6.3142,-6.3072,-6.3148,-6.3174,-6.3127,-6.3393,-6.331,-6.3342,-6.3446,-6.3711,-6.3727,-6.3742,-6.3852,-6.3884,-6.3911,0,0,0,0,0,0,-6.2762,-6.2829,-6.2802,-6.2987,-6.3052,-6.3112,-6.3208,-6.3176,-6.326,-6.3246,-6.3234,-6.3251,-6.3415,-6.3446,-6.3352,-6.364,-6.3541,-6.3563,-6.3614,-6.3645,-6.3669,-6.3658,-6.3254,0,0,0,0,0,-6.2807,-6.2913,-6.2964,-6.3123,-6.3157,-6.3178,-6.3236,-6.3227,-6.3292,-6.3319,-6.3356,-6.342,-6.3518,-6.3583,-6.3675,-6.3867,-6.388,-6.3954,-6.3978,-6.3998,-6.4018,-6.4121,-6.4154,-6.38,-6.38,-6.38,0,0,-6.2898,-6.2948,-6.3015,-6.3145,-6.3194,-6.3303,-6.3201,-6.332,-6.34,-6.3336,-6.3488,-6.3518,-6.3588,-6.3764,-6.3843,-6.3795,-6.4118,-6.4018,-6.4033,-6.4042,-6.414,-6.4173,-6.4203,-6.3811,-6.3809,-6.3807,0,0,-6.3121,-6.317,-6.3307,-6.3359,-6.3435,-6.3447,-6.348,-6.3546,-6.3564,-6.3716,-6.367,-6.3764,-6.3933,-6.3985,-6.4034,-6.4277,-6.4236,-6.4307,-6.4434,-6.4535,-6.4563,-6.4587,-6.4674,-6.4705,-6.4326,-6.4326,-6.4327,0,-6.3225,-6.3389,-6.3381,-6.3505,-6.3563,-6.3511,-6.365,-6.3699,-6.3801,-6.3841,-6.3786,-6.3997,-6.4041,-6.4228,-6.4287,-6.4329,-6.4365,-6.4299,-6.456,-6.4584,-6.4607,-6.4689,-6.4722,-6.4334,-6.4333,-6.4333,-6.4332,0,-6.3513,-6.3627,-6.3729,-6.3831,-6.3899,-6.403,-6.404,-6.4111,-6.4095,-6.4113,-6.4268,-6.4319,-6.442,-6.4464,-6.4449,-6.4649,-6.4616,-6.4561,-6.4461,-6.4649,-6.4726,-6.4758,-6.4346,-6.4343,-6.4341,-6.4339,0,0,-6.3804,-6.39,-6.3938,-6.3983,-6.4063,-6.415,-6.4277,-6.4379,-6.4439,-6.451,-6.4616,-6.476,-6.471,-6.4765,-6.4755,-6.4843,-6.5032,-6.4777,-6.4778,-6.4822,-6.5255,-6.5296,-6.5333,-6.5005,-6.5011,-6.5016,-6.5249,0,-6.4032,-6.4257,-6.4254,-6.4461,-6.4566,-6.4519,-6.4629,-6.4689,-6.4709,-6.4799,-6.482,-6.4923,-6.4848,-6.4881,-6.4966,-6.4991,-6.5118,-6.4974,-6.5102,-6.5107,-6.5087,-6.5373,-6.5418,-6.5635,-6.5279,-6.5284,-6.5288,0,-6.4329,-6.4413,-6.4631,-6.4696,-6.474,-6.484,-6.4932,-6.5019,-6.5086,-6.5093,-6.5156,-6.5132,-6.5259,-6.5156,-6.533,-6.5232,-6.5284,-6.5304,-6.5312,-6.5324,-6.5209,-6.5393,-6.5704,-6.5737,-6.5335,-6.5331,-6.5328,0,-6.452,-6.4686,-6.4839,-6.4879,-6.4958,-6.5029,-6.5065,-6.5126,-6.5187,-6.5266,-6.5305,-6.5398,-6.5449,-6.5521,-6.5522,-6.5447,-6.5698,-6.5595,-6.5707,-6.5708,-6.5763,-6.5759,-6.6087,-6.5796,-6.5796,-6.5795,-6.5794,0,-6.4775,-6.4911,-6.4926,-6.502,-6.5169,-6.5163,-6.5311,-6.534,-6.5394,-6.5491,-6.5455,-6.5546,-6.5542,-6.5635,-6.5636,-6.578,-6.5803,-6.5812,-6.5811,-6.5816,-6.5815,-6.585,-6.5835,-6.5804,-6.5802,-6.58,-6.5799,0,-6.5014,-6.503,-6.5192,-6.5254,-6.5273,-6.5381,-6.5432,-6.5521,-6.5537,-6.566,-6.5689,-6.5714,-6.5821,-6.5829,-6.5952,-6.5953,-6.6127,-6.6109,-6.6106,-6.6103,-6.6214,-6.6204,-6.6576,-6.6625,-6.6302,-6.6305,-6.6308,0,-6.5177,-6.528,-6.5353,-6.5417,-6.5457,-6.556,-6.5622,-6.5619,-6.5685,-6.5769,-6.5847,-6.595,-6.6033,-6.6206,-6.6233,-6.6327,-6.6311,-6.6435,-6.6325,-6.6326,-6.6313,-6.6307,-6.6317,-6.6457,-6.646,-6.6463,-6.6465,0,-6.5463,-6.5466,-6.5558,-6.5654,-6.5729,-6.5804,-6.5873,-6.5927,-6.5932,-6.6008,-6.6118,-6.6182,-6.6308,-6.6411,-6.6503,-6.6537,-6.6503,-6.65,-6.6531,-6.6537,-6.6531,-6.6536,-6.6164,-6.6491,-6.6489,-6.6487,-6.6486,-6.6484,-6.5669,-6.5758,-6.5824,-6.5928,-6.598,-6.6046,-6.6132,-6.616,-6.6252,-6.6356,-6.6348,-6.6469,-6.6531,-6.6651,-6.6693,-6.6786,-6.6744,-6.6789,-6.68,-6.6812,-6.6823,-6.6516,-6.6803,-6.6802,-6.6801,-6.6801,-6.68,0,-6.5953,-6.5993,-6.6089,-6.6188,-6.627,-6.6231,-6.6306,-6.6376,-6.6484,-6.6546,-6.6629,-6.6754,-6.6854,-6.689,-6.6986,-6.7054,-6.7041,-6.708,-6.7074,-6.7083,-6.6856,-6.6819,-6.7089,-6.7089,-6.7089,-6.7089,-6.7089,-6.7089,-6.6111,-6.6261,-6.6271,-6.6446,-6.6484,-6.6604,-6.665,-6.671,-6.676,-6.6902,-6.6986,-6.7009,-6.706,-6.716,-6.7249,-6.7257,-6.7294,-6.734,-6.7341,-6.7128,-6.7099,-6.7071,-6.7037,-6.7348,-6.7348,-6.756,-6.7562,-6.7564]}]]